Camanche, IA

10:33 PM CDT on August 30, 2016 (GMT -0500)
Clinton Municipal

Weather History for KCWI - March, 2013

Change the Weather History Date:

Tuesday, March 12, 2013

  Actual Average Record
Temperature  
Mean Temperature 28 °F -  
Max Temperature 33 °F 46 °F 80 °F (1990)
Min Temperature 24 °F 28 °F -8 °F (1960)
Degree Days  
Heating Degree Days 36    
Moisture  
Dew Point 22 °F    
Average Humidity 74    
Maximum Humidity 86    
Minimum Humidity 64    
Precipitation  
Precipitation 0.00 in - - ()
Sea Level Pressure  
Sea Level Pressure 29.98 in    
Wind  
Wind Speed 18 mph (WNW)    
Max Wind Speed 28 mph    
Max Gust Speed 34 mph    
Visibility 10 miles    
Events      
Averages and records for this station are not official NWS values.
T = Trace of Precipitation, MM = Missing Value Source: NWS Daily Summary

Daily Weather History Graph

Daily Weather History Graph

Search for Another Location

Airport or City:

Trip Planner

Search our weather history database for the weather conditions in past years. The results will help you decide how hot, cold, wet, or windy it might be!

Date:

Astronomy

Mar. 12, 2013 Rise Set
Actual Time 7:17 AM CDT 7:04 PM CDT
Civil Twilight 6:50 AM CDT 7:32 PM CDT
Nautical Twilight 6:17 AM CDT 8:04 PM CDT
Astronomical Twilight 5:45 AM CDT 8:37 PM CDT
Moon 7:22 AM CDT (3/12) 8:21 PM CDT (3/12)
Length of Visible Light 12h 42m
Length of Day
11h 47m
New Moon, 1% of the Moon is Illuminated
Mar 12
New Moon
Mar 19
First Quarter
Mar 27
Full
Apr 2
Last Quarter
Apr 10
New

Hourly Weather History & Observations

Time (CDT) Temp. Windchill Dew Point Humidity Pressure Visibility Wind Dir Wind Speed Gust Speed Precip Events Conditions
12:15 AM 28.4 °F 15.4 °F 21.2 °F 74% 29.88 in 10.0 mi WNW 19.6 mph 25.3 mph N/A   Overcast
12:35 AM 28.4 °F 14.7 °F 21.2 °F 74% 29.88 in 10.0 mi West 21.9 mph - N/A   Overcast
12:55 AM 28.4 °F 15.8 °F 21.2 °F 74% 29.88 in 10.0 mi WNW 18.4 mph 26.5 mph N/A   Overcast
1:15 AM 28.4 °F 15.1 °F 21.2 °F 74% 29.89 in 10.0 mi WNW 20.7 mph - N/A   Overcast
1:35 AM 28.4 °F 15.4 °F 23.0 °F 80% 29.89 in 7.0 mi WNW 19.6 mph - N/A   Mostly Cloudy
1:55 AM 28.4 °F 16.2 °F 23.0 °F 80% 29.90 in 10.0 mi West 17.3 mph 21.9 mph N/A   Mostly Cloudy
2:15 AM 28.4 °F 15.1 °F 21.2 °F 74% 29.91 in 10.0 mi West 20.7 mph 24.2 mph N/A   Mostly Cloudy
2:35 AM 28.4 °F 15.8 °F 23.0 °F 80% 29.92 in 10.0 mi West 18.4 mph - N/A   Overcast
2:55 AM 28.4 °F 18.0 °F 23.0 °F 80% 29.93 in 10.0 mi West 12.7 mph 21.9 mph N/A   Overcast
3:15 AM 26.6 °F 14.3 °F 21.2 °F 80% 29.92 in 10.0 mi West 16.1 mph - N/A   Mostly Cloudy
3:35 AM 26.6 °F 13.8 °F 21.2 °F 80% 29.92 in 10.0 mi West 17.3 mph - N/A   Partly Cloudy
3:55 AM 26.6 °F 15.2 °F 21.2 °F 80% 29.92 in 10.0 mi West 13.8 mph - N/A   Clear
4:15 AM 26.6 °F 13.4 °F 19.4 °F 74% 29.92 in 10.0 mi West 18.4 mph - N/A   Clear
4:35 AM 26.6 °F 14.7 °F 17.6 °F 69% 29.92 in 10.0 mi WNW 15.0 mph - N/A   Clear
4:55 AM 26.6 °F 13.8 °F 17.6 °F 69% 29.92 in 10.0 mi WNW 17.3 mph - N/A   Clear
5:15 AM 26.6 °F 15.2 °F 17.6 °F 69% 29.93 in 10.0 mi WNW 13.8 mph - N/A   Clear
5:35 AM 26.6 °F 15.7 °F 17.6 °F 69% 29.93 in 10.0 mi West 12.7 mph - N/A   Clear
5:55 AM 26.6 °F 15.2 °F 19.4 °F 74% 29.94 in 10.0 mi West 13.8 mph - N/A   Clear
6:15 AM 26.6 °F 15.2 °F 19.4 °F 74% 29.95 in 10.0 mi West 13.8 mph - N/A   Clear
6:35 AM 26.6 °F 15.7 °F 19.4 °F 74% 29.95 in 10.0 mi West 12.7 mph - N/A   Clear
6:55 AM 26.6 °F 15.7 °F 19.4 °F 74% 29.95 in 10.0 mi West 12.7 mph - N/A   Clear
7:15 AM 24.8 °F 14.0 °F 19.4 °F 80% 29.94 in 10.0 mi West 11.5 mph - N/A   Clear
7:35 AM 24.8 °F 14.0 °F 19.4 °F 80% 29.95 in 10.0 mi West 11.5 mph - N/A   Clear
7:55 AM 26.6 °F 16.2 °F 21.2 °F 80% 29.95 in 10.0 mi West 11.5 mph - N/A   Clear
8:15 AM 26.6 °F 15.7 °F 21.2 °F 80% 29.95 in 10.0 mi West 12.7 mph - N/A   Clear
8:35 AM 26.6 °F 13.8 °F 21.2 °F 80% 29.96 in 10.0 mi West 17.3 mph - N/A   Mostly Cloudy
8:55 AM 28.4 °F 18.5 °F 21.2 °F 74% 29.95 in 10.0 mi West 11.5 mph - N/A   Mostly Cloudy
9:15 AM 28.4 °F 17.5 °F 21.2 °F 74% 29.96 in 10.0 mi West 13.8 mph - N/A   Partly Cloudy
9:35 AM 28.4 °F 16.6 °F 23.0 °F 80% 29.97 in 10.0 mi West 16.1 mph - N/A   Clear
9:55 AM 30.2 °F 19.8 °F 23.0 °F 75% 29.98 in 10.0 mi West 13.8 mph - N/A   Clear
10:15 AM 30.2 °F 19.3 °F 24.8 °F 80% 29.98 in 10.0 mi West 15.0 mph - N/A   Scattered Clouds
10:35 AM 32.0 °F 21.2 °F 24.8 °F 75% 29.98 in 10.0 mi West 16.1 mph - N/A   Mostly Cloudy
10:55 AM 30.2 °F 18.9 °F 24.8 °F 80% 29.98 in 10.0 mi West 16.1 mph - N/A   Overcast
11:15 AM 32.0 °F 21.6 °F 24.8 °F 75% 29.97 in 10.0 mi WSW 15.0 mph - N/A   Overcast
11:35 AM 33.8 °F 24.8 °F 24.8 °F 70% 29.97 in 10.0 mi WSW 12.7 mph - N/A   Overcast
11:55 AM 33.8 °F 23.9 °F 24.8 °F 70% 29.97 in 10.0 mi West 15.0 mph - N/A   Mostly Cloudy
12:15 PM 33.8 °F 22.5 °F 26.6 °F 75% 29.97 in 10.0 mi West 19.6 mph - N/A   Mostly Cloudy
12:35 PM 33.8 °F 22.5 °F 24.8 °F 70% 29.97 in 9.0 mi West 19.6 mph 24.2 mph N/A   Mostly Cloudy
12:55 PM 32.0 °F 19.5 °F 24.8 °F 75% 29.97 in 3.0 mi West 21.9 mph - N/A   Overcast
1:15 PM 30.2 °F 18.9 °F 26.6 °F 86% 29.97 in 8.0 mi West 16.1 mph - N/A   Overcast
1:35 PM 32.0 °F 20.1 °F 26.6 °F 80% 29.97 in 10.0 mi WSW 19.6 mph 27.6 mph N/A   Overcast
1:55 PM 32.0 °F 19.5 °F 26.6 °F 80% 29.97 in 9.0 mi West 21.9 mph 25.3 mph N/A   Overcast
2:15 PM 33.8 °F 22.5 °F 26.6 °F 75% 29.97 in 10.0 mi West 19.6 mph - N/A   Overcast
2:35 PM 33.8 °F 21.9 °F 26.6 °F 75% 29.97 in 8.0 mi West 21.9 mph 26.5 mph N/A   Overcast
2:55 PM 32.0 °F 20.5 °F 26.6 °F 80% 29.97 in 4.0 mi West 18.4 mph 23.0 mph N/A   Overcast
3:15 PM 33.8 °F 21.9 °F 26.6 °F 75% 29.96 in 9.0 mi West 21.9 mph 25.3 mph N/A   Overcast
3:35 PM 32.0 °F 20.1 °F 26.6 °F 80% 29.96 in 3.0 mi West 19.6 mph 28.8 mph N/A   Overcast
3:55 PM 33.8 °F 21.3 °F 28.4 °F 81% 29.97 in 10.0 mi WNW 24.2 mph 31.1 mph N/A   Overcast
4:15 PM 33.8 °F 20.8 °F 26.6 °F 75% 29.97 in 10.0 mi WNW 26.5 mph 29.9 mph N/A   Mostly Cloudy
4:35 PM 33.8 °F 20.5 °F 24.8 °F 70% 29.98 in 10.0 mi WNW 27.6 mph 31.1 mph N/A   Overcast
4:55 PM 33.8 °F 21.6 °F 23.0 °F 65% 29.98 in 10.0 mi WNW 23.0 mph - N/A   Scattered Clouds
5:15 PM 30.2 °F 16.8 °F 19.4 °F 64% 29.99 in 10.0 mi WNW 23.0 mph 32.2 mph N/A   Partly Cloudy
5:35 PM 30.2 °F 15.9 °F 19.4 °F 64% 30.00 in 10.0 mi WNW 26.5 mph 34.5 mph N/A   Scattered Clouds
5:55 PM 30.2 °F 16.8 °F 21.2 °F 69% 30.01 in 10.0 mi WNW 23.0 mph 29.9 mph N/A   Partly Cloudy
6:15 PM 30.2 °F 15.9 °F 19.4 °F 64% 30.02 in 10.0 mi NW 26.5 mph 33.4 mph N/A   Mostly Cloudy
6:35 PM 28.4 °F 14.4 °F 17.6 °F 64% 30.03 in 10.0 mi WNW 23.0 mph 33.4 mph N/A   Mostly Cloudy
6:55 PM 28.4 °F 13.8 °F 19.4 °F 69% 30.04 in 10.0 mi NW 25.3 mph 31.1 mph N/A   Overcast
7:15 PM 28.4 °F 15.1 °F 19.4 °F 69% 30.05 in 9.0 mi WNW 20.7 mph 32.2 mph N/A   Mostly Cloudy
7:35 PM 26.6 °F 12.0 °F 19.4 °F 74% 30.06 in 10.0 mi WNW 23.0 mph 27.6 mph N/A   Overcast
7:55 PM 26.6 °F 12.4 °F 19.4 °F 74% 30.07 in 10.0 mi NW 21.9 mph 27.6 mph N/A   Overcast
8:15 PM 26.6 °F 12.4 °F 19.4 °F 74% 30.07 in 10.0 mi WNW 21.9 mph 25.3 mph N/A   Overcast
8:35 PM 26.6 °F 11.1 °F 17.6 °F 69% 30.08 in 10.0 mi WNW 26.5 mph 31.1 mph N/A   Overcast
8:55 PM 26.6 °F 12.4 °F 19.4 °F 74% 30.08 in 10.0 mi WNW 21.9 mph 29.9 mph N/A   Mostly Cloudy
9:15 PM 26.6 °F 12.0 °F 19.4 °F 74% 30.09 in 10.0 mi WNW 23.0 mph - N/A   Mostly Cloudy
9:35 PM 26.6 °F 12.4 °F 17.6 °F 69% 30.10 in 10.0 mi NW 21.9 mph 26.5 mph N/A   Mostly Cloudy
9:55 PM 26.6 °F 12.4 °F 17.6 °F 69% 30.10 in 10.0 mi NW 21.9 mph 28.8 mph N/A   Overcast
10:15 PM 26.6 °F 12.7 °F 15.8 °F 64% 30.10 in 10.0 mi WNW 20.7 mph 28.8 mph N/A   Overcast
10:35 PM 26.6 °F 12.0 °F 17.6 °F 69% 30.11 in 10.0 mi WNW 23.0 mph 27.6 mph N/A   Overcast
10:55 PM 24.8 °F 9.6 °F 17.6 °F 74% 30.11 in 10.0 mi NW 23.0 mph - N/A   Overcast
11:15 PM 24.8 °F 11.1 °F 17.6 °F 74% 30.11 in 10.0 mi WNW 18.4 mph 23.0 mph N/A   Overcast
11:35 PM 24.8 °F 10.3 °F 17.6 °F 74% 30.12 in 10.0 mi NW 20.7 mph 25.3 mph N/A   Overcast
11:55 PM 26.6 °F 13.8 °F 17.6 °F 69% 30.12 in 10.0 mi WNW 17.3 mph - N/A   Overcast